Location: Mentone
(34.5413°N, 85.5351°W)
Time: 00:54:34
(UTC-05:00)

Tiros 1 despin weight - All Passes

Search period start: 22 August 2014 00:00
Search period end: 01 September 2014 00:00
Orbit: 601 x 653 km, 48.2° (Epoch: 21 August)

Date Brightness Start Highest point End Pass type
(mag) Time Alt. Az. Time Alt. Az. Time Alt. Az.
22 Aug - 07:41:42 10° SW 07:46:19 57° SE 07:50:58 10° ENE daylight
22 Aug - 09:24:06 10° W 09:28:19 31° NNW 09:32:32 10° NE daylight
22 Aug - 11:08:23 10° NW 11:11:16 16° N 11:14:08 10° NNE daylight
22 Aug - 12:51:02 10° NNW 12:54:28 20° NNE 12:57:53 10° ENE daylight
22 Aug - 14:32:21 10° NW 14:37:00 59° NE 14:41:35 10° ESE daylight
22 Aug - 16:14:51 10° W 16:18:28 23° SW 16:22:03 10° S daylight
23 Aug - 06:21:06 10° S 06:24:23 19° SE 06:27:41 10° E daylight
23 Aug - 08:01:04 10° WSW 08:05:46 70° NW 08:10:30 10° NE daylight
23 Aug - 09:44:34 10° WNW 09:48:12 21° NNW 09:51:49 10° NNE daylight
23 Aug - 11:28:34 10° NNW 11:31:22 15° N 11:34:11 10° NE daylight
23 Aug - 13:10:20 10° NW 13:14:24 28° NNE 13:18:25 10° E daylight
23 Aug - 14:51:49 10° WNW 14:56:30 69° SW 15:01:05 10° SE daylight
24 Aug - 06:39:11 10° SSW 06:43:35 41° SE 06:48:02 10° ENE daylight
24 Aug - 08:21:00 10° W 08:25:24 38° NNW 08:29:50 10° NE daylight
24 Aug - 10:05:10 10° NW 10:08:13 17° N 10:11:16 10° NNE daylight
24 Aug - 11:48:15 10° NNW 11:51:27 18° NNE 11:54:39 10° NE daylight
24 Aug - 13:29:36 10° NW 13:34:09 46° NNE 13:38:38 10° ESE daylight
24 Aug - 15:11:40 10° WNW 15:15:48 31° SW 15:19:53 10° SSE daylight
25 Aug - 05:19:31 10° SSE 05:21:45 13° SE 05:23:58 10° E visible
25 Aug - 06:58:16 10° SW 07:02:57 88° SE 07:07:43 10° NE daylight
25 Aug - 08:41:21 10° WNW 08:45:13 24° NNW 08:49:06 10° NE daylight
25 Aug - 10:25:32 10° NW 10:28:19 15° N 10:31:06 10° NE daylight
25 Aug - 12:07:36 10° NNW 12:11:26 24° NNE 12:15:14 10° ENE daylight
25 Aug - 13:48:59 10° NW 13:53:43 88° NE 13:58:23 10° SE daylight
25 Aug - 15:32:33 10° W 15:34:57 14° SW 15:37:20 10° SSW daylight
26 Aug - 05:36:50 10° SSW 05:40:53 30° SE 05:44:59 10° ENE visible
26 Aug - 07:17:58 10° WSW 07:22:30 48° NNW 07:27:06 10° NE daylight
26 Aug - 09:01:55 10° NW 09:05:11 18° NNW 09:08:27 10° NNE daylight
26 Aug - 10:45:24 10° NNW 10:48:25 16° N 10:51:25 10° NE daylight
26 Aug - 12:26:52 10° NW 12:31:16 36° NNE 12:35:36 10° E daylight
26 Aug - 14:08:38 10° WNW 14:13:06 43° SW 14:17:30 10° SSE daylight
27 Aug - 05:55:33 10° SW 06:00:10 66° SE 06:04:52 10° ENE daylight
27 Aug - 07:38:09 10° W 07:42:15 29° NNW 07:46:22 10° NE daylight
27 Aug - 09:22:25 10° NW 09:25:15 15° N 09:28:05 10° NNE daylight
27 Aug - 11:04:52 10° NNW 11:08:27 21° NNE 11:12:00 10° ENE daylight
27 Aug - 12:46:11 10° NW 12:50:54 67° NE 12:55:34 10° ESE daylight
27 Aug - 14:28:55 10° W 14:32:18 20° SW 14:35:40 10° S daylight
28 Aug - 04:34:41 10° S 04:38:12 22° SE 04:41:46 10° E visible
28 Aug - 06:15:01 10° WSW 06:19:39 62° NW 06:24:21 10° NE daylight
28 Aug - 07:58:40 10° WNW 08:02:09 20° NNW 08:05:39 10° NNE daylight
28 Aug - 09:42:30 10° NNW 09:45:21 16° N 09:48:13 10° NE daylight
28 Aug - 11:24:08 10° NW 11:28:20 30° NNE 11:32:29 10° E daylight
28 Aug - 13:05:41 10° WNW 13:10:21 60° SW 13:14:57 10° SE daylight
29 Aug - 04:52:59 10° SSW 04:57:25 47° SE 05:01:56 10° ENE visible
29 Aug - 06:35:01 10° W 06:39:18 34° NNW 06:43:38 10° NE daylight
29 Aug - 08:19:14 10° NW 08:22:11 16° N 08:25:09 10° NNE daylight
29 Aug - 10:02:05 10° NNW 10:05:25 19° NNE 10:08:44 10° ENE daylight
29 Aug - 11:43:25 10° NW 11:48:03 51° NNE 11:52:38 10° ESE daylight
29 Aug - 13:25:38 10° WNW 13:29:38 27° SW 13:33:35 10° S daylight
30 Aug - 03:32:52 10° SSE 03:35:33 15° SE 03:38:15 10° E visible
30 Aug - 05:12:10 10° SW 05:16:49 82° NW 05:21:33 10° NE visible
30 Aug - 06:55:25 10° WNW 06:59:08 23° NNW 07:02:54 10° NNE daylight
30 Aug - 08:39:30 10° NW 08:42:17 15° N 08:45:04 10° NE daylight
30 Aug - 10:21:25 10° NW 10:25:22 25° NNE 10:29:18 10° ENE daylight
30 Aug - 12:02:49 10° NW 12:07:34 82° SW 12:12:16 10° SE daylight
30 Aug - 13:46:56 10° WSW 13:48:45 12° SW 13:50:33 10° SSW daylight
31 Aug - 03:50:32 10° SSW 03:54:42 34° SE 03:58:55 10° ENE visible
31 Aug - 05:31:58 10° WSW 05:36:23 43° NNW 05:40:54 10° NE visible
31 Aug - 07:16:00 10° NW 07:19:08 17° N 07:22:16 10° NNE daylight
31 Aug - 08:59:16 10° NNW 09:02:22 17° N 09:05:28 10° NE daylight
31 Aug - 10:40:40 10° NW 10:45:09 40° NNE 10:49:36 10° E daylight
31 Aug - 12:22:32 10° WNW 12:26:55 38° SW 12:31:15 10° SSE daylight
